Date String (YYYY-MM-DD hh:mm:ss) UTC,Instrument flags,absolute air pressure of the measurement (hPa),sample flow rate (lpm),inlet stack bypass flow (lpm),air temperature of the measurement (°C),ambient temperature measured by the external sensor (°C),aerosol sample conditioner tube jacket temperature (°C),OPC LED temperature (°C),internal box temperature (°C),relative humidity of the measurement (%),span deviation,mass concentration of particles derived from Lorenz-Mie calculation of OPC scattering (μg/m³),mass concentration of particles derived from Lorenz-Mie calculation of OPC scattering (μg/m³),mass concentration of particles derived from Lorenz-Mie calculation of OPC scattering (μg/m³)
DateTimeUTC,F1_M11,P_M11,Q1_M11,Q2_M11,T1_M11,T2_M11,T3_M11,T4_M11,T5_M11,U1_M11,ZSPAN_M11,X2_M11,X0_M11,X1_M11
2024-03-13 19:00:00,SystemResetWarning,0820.8,5.00,000.00,021.2,020.5,000.0,029.6,023.0,25.8,0000.0,0004.93,0010.93,0004.05
2024-03-13 19:01:00,SystemResetWarning,0820.8,4.99,000.00,021.2,020.5,000.0,029.6,022.9,26.0,0000.0,0004.93,0010.86,0004.06
2024-03-13 19:02:00,SystemResetWarning,0820.7,5.00,000.00,021.2,020.5,000.0,029.6,022.9,26.3,0000.0,0004.94,0010.68,0004.08
2024-03-13 19:03:00,SystemResetWarning,0820.8,5.00,000.00,021.2,020.4,000.0,029.6,022.9,26.8,0000.0,0004.97,0011.07,0004.09
2024-03-13 19:04:00,SystemResetWarning,0820.8,4.99,000.00,021.1,020.4,000.0,029.6,022.9,26.2,0000.0,0005.00,0011.10,0004.10
2024-03-13 19:05:00,SystemResetWarning,0820.8,5.00,000.00,021.1,020.4,000.0,029.6,022.9,26.5,0000.0,0005.04,0011.10,0004.11
2024-03-13 19:06:00,SystemResetWarning,0820.7,5.00,000.00,021.1,020.4,000.0,029.6,022.9,26.3,0000.0,0005.07,0011.20,0004.13
2024-03-13 19:07:00,SystemResetWarning,0820.8,5.00,000.00,021.1,020.3,000.0,029.6,022.9,25.9,0000.0,0005.10,0010.50,0004.15
2024-03-13 19:08:00,SystemResetWarning,0820.7,5.00,000.00,021.1,020.3,000.0,029.6,022.8,25.7,0000.0,0005.09,0010.43,0004.16
2024-03-13 19:09:00,SystemResetWarning,0820.8,5.01,000.00,021.1,020.2,000.0,029.6,022.8,26.0,0000.0,0005.09,0010.37,0004.18
2024-03-13 19:10:00,SystemResetWarning,0820.8,5.01,000.00,021.1,020.2,000.0,029.6,022.8,26.4,0000.0,0005.14,0010.43,0004.19
2024-03-13 19:11:00,SystemResetWarning,0820.7,5.00,000.00,021.1,020.2,000.0,029.6,022.8,26.1,0000.0,0005.18,0010.62,0004.22
2024-03-13 19:12:00,SystemResetWarning,0820.7,4.99,000.00,021.1,020.2,000.0,029.6,022.8,25.7,0000.0,0005.18,0010.65,0004.23
2024-03-13 19:13:00,SystemResetWarning,0820.7,5.00,000.00,021.1,020.2,000.0,029.6,022.8,26.0,0000.0,0005.21,0010.82,0004.24
2024-03-13 19:14:00,SystemResetWarning,0820.7,5.00,000.00,021.1,020.2,000.0,029.6,022.8,26.0,0000.0,0005.23,0010.90,0004.26
2024-03-13 19:15:00,SystemResetWarning,0820.7,5.01,000.00,021.1,020.2,000.0,029.6,022.8,25.8,0000.0,0005.24,0009.93,0004.28
2024-03-13 19:16:00,SystemResetWarning,0820.6,5.00,000.00,021.0,020.2,000.0,029.6,022.8,25.6,0000.0,0005.26,0010.03,0004.29
2024-03-13 19:17:00,SystemResetWarning,0820.6,5.00,000.00,021.0,020.3,000.0,029.6,022.8,25.6,0000.0,0005.30,0010.07,0004.32
2024-03-13 19:18:00,SystemResetWarning,0820.6,4.99,000.00,021.0,020.3,000.0,029.6,022.8,25.5,0000.0,0005.35,0010.20,0004.34
2024-03-13 19:19:00,SystemResetWarning,0820.6,4.99,000.00,021.0,020.3,000.0,029.6,022.8,26.7,0000.0,0005.36,0010.24,0004.34
2024-03-13 19:20:00,SystemResetWarning,0820.6,4.99,000.00,021.1,020.3,000.0,029.6,022.9,26.7,0000.0,0005.34,0010.14,0004.34
2024-03-13 19:21:00,SystemResetWarning,0820.5,4.99,000.00,021.1,020.3,000.0,029.6,022.9,26.2,0000.0,0005.37,0010.33,0004.36
2024-03-13 19:22:00,SystemResetWarning,0820.6,5.01,000.00,021.1,020.3,000.0,029.6,022.9,25.2,0000.0,0005.38,0010.54,0004.34
2024-03-13 19:23:00,SystemResetWarning,0820.5,5.01,000.00,021.1,020.3,000.0,029.6,022.8,25.3,0000.0,0005.37,0011.36,0004.30
2024-03-13 19:24:00,SystemResetWarning,0820.7,5.01,000.00,021.0,020.3,000.0,029.6,022.8,25.2,0000.0,0005.37,0011.83,0004.28
2024-03-13 19:25:00,SystemResetWarning,0820.5,5.01,000.00,021.0,020.3,000.0,029.6,022.8,25.7,0000.0,0005.34,0011.48,0004.26
2024-03-13 19:26:00,SystemResetWarning,0820.6,4.99,000.00,021.0,020.3,000.0,029.6,022.8,25.4,0000.0,0005.33,0011.44,0004.26
2024-03-13 19:27:00,SystemResetWarning,0820.7,4.99,000.00,021.0,020.3,000.0,029.6,022.8,24.6,0000.0,0005.33,0011.39,0004.26
2024-03-13 19:28:00,SystemResetWarning,0820.9,5.00,000.00,021.0,020.3,000.0,029.6,022.8,25.6,0000.0,0005.39,0011.57,0004.25
2024-03-13 19:29:00,SystemResetWarning,0820.9,5.01,000.00,021.0,020.3,000.0,029.6,022.8,25.2,0000.0,0005.38,0012.05,0004.23
2024-03-13 19:30:00,SystemResetWarning,0820.9,5.01,000.00,021.0,020.3,000.0,029.6,022.8,25.3,0000.0,0005.36,0012.09,0004.22
2024-03-13 19:31:00,SystemResetWarning,0820.8,5.00,000.00,021.1,020.3,000.0,029.6,022.9,25.6,0000.0,0005.38,0012.21,0004.22
2024-03-13 19:32:00,SystemResetWarning,0820.9,4.99,000.00,021.1,020.3,000.0,029.6,022.8,24.3,0000.0,0005.35,0012.08,0004.21
2024-03-13 19:33:00,SystemResetWarning,0820.5,5.01,000.00,021.0,020.3,000.0,029.6,022.8,24.7,0000.0,0005.28,0011.87,0004.21
2024-03-13 19:34:00,SystemResetWarning,0820.8,5.02,000.00,021.0,020.3,000.0,029.6,022.8,23.7,0000.0,0005.30,0011.80,0004.24
2024-03-13 19:35:00,SystemResetWarning,0820.6,5.00,000.00,021.0,020.2,000.0,029.6,022.8,23.4,0000.0,0005.29,0012.23,0004.26
2024-03-13 19:36:00,SystemResetWarning,0820.8,5.00,000.00,021.0,020.2,000.0,029.6,022.8,23.5,0000.0,0005.33,0012.67,0004.26
2024-03-13 19:37:00,SystemResetWarning,0820.8,5.00,000.00,021.0,020.2,000.0,029.6,022.8,23.1,0000.0,0005.36,0013.06,0004.26
2024-03-13 19:38:00,SystemResetWarning,0820.5,5.00,000.00,021.0,020.2,000.0,029.5,022.8,23.6,0000.0,0005.29,0013.29,0004.24
2024-03-13 19:39:00,SystemResetWarning,0820.5,5.00,000.00,021.0,020.2,000.0,029.5,022.8,23.1,0000.0,0005.17,0012.95,0004.21
2024-03-13 19:40:00,SystemResetWarning,0820.8,5.00,000.00,021.0,020.2,000.0,029.5,022.8,23.0,0000.0,0005.15,0012.47,0004.18
2024-03-13 19:41:00,SystemResetWarning,0820.6,5.00,000.00,021.0,020.1,000.0,029.5,022.7,22.8,0000.0,0005.20,0012.70,0004.15
2024-03-13 19:42:00,SystemResetWarning,0820.4,5.00,000.00,021.0,020.1,000.0,029.5,022.7,23.1,0000.0,0005.14,0012.77,0004.12
2024-03-13 19:43:00,SystemResetWarning,0820.3,5.01,000.00,021.0,020.1,000.0,029.5,022.7,23.2,0000.0,0005.09,0012.62,0004.10
2024-03-13 19:44:00,SystemResetWarning,0820.4,5.01,000.00,021.0,020.1,000.0,029.5,022.7,23.1,0000.0,0005.10,0012.44,0004.06
2024-03-13 19:45:00,SystemResetWarning,0820.3,5.00,000.00,021.0,020.1,000.0,029.5,022.7,23.3,0000.0,0005.00,0011.50,0004.00
2024-03-13 19:46:00,SystemResetWarning,0820.3,5.00,000.00,021.0,020.1,000.0,029.5,022.7,23.7,0000.0,0004.90,0010.34,0003.93
2024-03-13 19:47:00,SystemResetWarning,0820.3,5.00,000.00,021.0,020.2,000.0,029.5,022.7,23.5,0000.0,0004.77,0010.11,0003.87
2024-03-13 19:48:00,SystemResetWarning,0820.3,4.99,000.00,021.0,020.2,000.0,029.5,022.7,23.0,0000.0,0004.64,0009.86,0003.81
2024-03-13 19:49:00,SystemResetWarning,0820.3,4.99,000.00,021.0,020.2,000.0,029.5,022.7,22.3,0000.0,0004.61,0009.39,0003.75
2024-03-13 19:50:00,SystemResetWarning,0820.3,5.00,000.00,021.0,020.1,000.0,029.5,022.7,22.3,0000.0,0004.55,0009.39,0003.66
2024-03-13 19:51:00,SystemResetWarning,0820.3,5.01,000.00,020.9,020.1,000.0,029.5,022.7,22.7,0000.0,0004.40,0009.19,0003.56
2024-03-13 19:52:00,SystemResetWarning,0820.2,5.00,000.00,020.9,020.1,000.0,029.5,022.7,23.1,0000.0,0004.20,0008.74,0003.45
2024-03-13 19:53:00,SystemResetWarning,0820.2,4.99,000.00,020.9,020.1,000.0,029.5,022.7,22.7,0000.0,0004.13,0008.50,0003.37
2024-03-13 19:54:00,SystemResetWarning,0820.2,4.99,000.00,020.9,020.1,000.0,029.5,022.7,22.4,0000.0,0004.02,0008.37,0003.28
2024-03-13 19:55:00,SystemResetWarning,0820.2,5.00,000.00,020.9,020.1,000.0,029.5,022.7,22.4,0000.0,0003.88,0008.14,0003.18
2024-03-13 19:56:00,SystemResetWarning,0820.2,5.00,000.00,020.9,020.2,000.0,029.5,022.7,22.4,0000.0,0003.80,0008.07,0003.12
2024-03-13 19:57:00,SystemResetWarning,0820.2,5.00,000.00,020.9,020.2,000.0,029.5,022.7,22.1,0000.0,0003.72,0008.02,0002.98
2024-03-13 19:58:00,SystemResetWarning,0820.1,5.00,000.00,020.9,020.2,000.0,029.5,022.7,21.9,0000.0,0003.60,0007.67,0002.80
2024-03-13 19:59:00,SystemResetWarning,0820.1,5.01,000.00,021.0,020.2,000.0,029.5,022.8,22.1,0000.0,0003.50,0007.02,0002.65
